Regional Weather Roundup
Issued by NWS

Current Version | Previous Version | Text Only | Print | Product List | Glossary On
Versions: 1 2 3 4 5 6 7 8 9 10 11 12 13 14 15 16 17 18 19 20 21 22 23 24 25 26 27
000
ASUS42 KTBW 091211
RWRFL
FLORIDA REGIONAL WEATHER ROUNDUP
NATIONAL WEATHER SERVICE TAMPA BAY RUSKIN FL
700 AM EST FRI DEC 09 2022

NOTE: "FAIR" INDICATES FEW OR NO CLOUDS BELOW 12,000 FEET WITH NO
SIGNIFICANT WEATHER AND/OR OBSTRUCTIONS TO VISIBILITY.

FLZ001>010-012>015-112-114-115-091300-
PANHANDLE FLORIDA

CITY           SKY/WX    TMP DP  RH WIND       PRES   REMARKS
PENSACOLA      FOG       63  63 100 W5        30.14R VSB 3/4
PENSACOLA NAS  CLOUDY    63  63 100 NW3       30.14  FOG
CRESTVIEW      FOG       61  61 100 CALM      30.15S VSB 1/4
DUKE FIELD     FOG       61  61 100 SW3       30.14R VSB 1/2
VALPARAISO     FOG       63  56  79 CALM      30.12R VSB 1/2
MARY ESTHER    FOG       63  61  94 NW3       30.13S VSB 1/2
PANAMA CITY    FOG       63  62  97 CALM      30.13S VSB 1/4
TYNDALL AFB    FOG       65  64  97 NW7       30.14R VSB 1/2
APALACHICOLA   FOG       64  64 100 CALM      30.14S VSB 1/2

STATION/POSITION SKY/WX   TEMP    WIND        PRES    WAVE   SWELL
                          AIR SEA DIR/SP/G            HT/PER HT/PER
                          (F)     (DEG/KT/KT) (MB)    (FT/S) (FT/S)
30.1N   87.6W              64 71  310/  8/ 10 1020.7R   1/ 7   2/ 7
29.2N   88.2W              72 74  290/  4/  8 1021.1R   1/ 7   2/ 7
28.8N   86.0W              75     270/  4/  6   N/A
PANAMA CITY BEAC           66 67  300/  9/ 11 1021.1R
TOWER C                    68                 1021.1R
28.5N   84.5W              73 76  350/ 10/ 12 1019.3R   1/ 7

$$
FLZ011-016>038-118-127-128-134-139-239-091300-
NORTH FLORIDA

CITY           SKY/WX    TMP DP  RH WIND       PRES   REMARKS
MARIANNA       FOG       58  58 100 CALM      30.14R VSB 1/4
TALLAHASSEE    FOG       58  58 100 CALM      30.15R VSB 1/4
LIVE OAK         N/A    N/A N/A N/A MISG        N/A
CROSS CITY     PTCLDY    52  52 100 CALM      30.15R FOG
LAKE CITY      FOG       55  55 100 CALM      30.15R VSB 1/4
GAINESVILLE    MOCLDY    54  54 100 CALM      30.17R
WILLISTON      FOG       56  56  99 CALM      30.14S VSB 1/2
PALATKA        FOG       50  50 100 CALM      30.14R VSB 1/4
MAYPORT NAS    CLEAR     65  62  90 NW7       30.13R
JACKSONVILLE   CLEAR     56  56 100 W5        30.13R
JAX NAS        CLEAR     63  61  93 NW7       30.14R
JAX CECIL      PTCLDY    54  54 100 VRB3      30.14R FOG
FERNANDINA BEA FAIR      61  59  94 NW6       30.13R
ST AUGUSTINE   CLEAR     61  50  67 W5        30.14R
PALM COAST       N/A     57  57  99 CALM      30.13R

STATION/POSITION SKY/WX   TEMP    WIND        PRES    WAVE   SWELL
                          AIR SEA DIR/SP/G            HT/PER HT/PER
                          (F)     (DEG/KT/KT) (MB)    (FT/S) (FT/S)
SHELL POINT      NOT AVBL
KEATON BEACH               62     360/  1/  2 1020.9R
CEDAR KEY                  66     360/  2/  2 1020.6R
FERNANDINA                 64 67  280/  3/  4 1020.2R
30.7N   81.3W              65 65                N/A     3/11   2/11
MAYPORT                    64 68  290/  4/  5 1020.4R
31.4N   80.9W              66 66  290/  4/  6 1018.8R   3/12   3/12
ST AUGUSTINE               64 68  310/  3/  4 1020.4R

$$
FLZ040-043>046-052-053-057-058-063-144-091300-
INTERIOR CENTRAL FLORIDA

CITY           SKY/WX    TMP DP  RH WIND       PRES   REMARKS
OCALA          FOG       60  60 100 CALM      30.15R VSB 1/4
LEESBURG       PTCLDY    63  62  97 CALM      30.14R FOG
SANFORD        CLEAR     62  61  96 W3        30.13R
ORLANDO EXEC   CLEAR     65  62  90 NW3       30.13R
ORLANDO INTL   CLEAR     64  62  93 NW3       30.13R
KISSIMMEE      CLEAR     62  61  96 CALM      30.15R
WINTER HAVEN   CLEAR     65  63  93 N7        30.15R
LAKELAND INTL  FOG       63  63 100 CALM      30.14S VSB 1/4
BARTOW         MOCLDY    63  61  94 NW5       30.14S
SEBRING        FAIR     N/A N/A N/A NW6       30.14R
OKEECHOBEE     CLEAR     63  63 100 N5        30.12R

$$
FLZ041-047-054-059-064-141-147-091300-
EAST CENTRAL FLORIDA

CITY           SKY/WX    TMP DP  RH WIND       PRES   REMARKS
ORMOND BEACH   CLEAR     59  59 100 CALM      30.13  FOG
DAYTONA BEACH  PTCLDY    61  60  97 CALM      30.13R
DELAND         FOG       58  57  96 NW3       30.14R VSB 1/2
NEW SMYRNA BEA CLEAR     61  61 100 CALM      30.12
JFK SPACE CTR  CLEAR     59  58  96 CALM      30.10R
TITUSVILLE     CLEAR     64  63  94 NW5       30.13
CAPE CANAVERAL CLEAR     67  64  92 NW5       30.09R
PATRICK AFB    CLEAR     67  64  87 NW7       30.09R
MELBOURNE      CLEAR     61  61 100 W3        30.12R
VERO BEACH     CLEAR     63  63 100 CALM      30.12
FT PIERCE      CLEAR     63  62  97 NW3       30.11R
STUART         CLEAR     69  66  91 NW5       30.12R

STATION/POSITION SKY/WX   TEMP    WIND        PRES    WAVE   SWELL
                          AIR SEA DIR/SP/G            HT/PER HT/PER
                          (F)     (DEG/KT/KT) (MB)    (FT/S) (FT/S)
28.5N   80.2W                 79  310/  8/ 12 1018.4R   5/12   5/12
28.9N   78.5W              76 80  340/ 12/ 14 1018.9R   6/12   7/12
TRIDENT PIER               68 76  320/  5/  6 1018.7R

$$
FLZ050-056-061-142-242-148-248-149-249-151-251-155-255-
160-260-091300-
WEST CENTRAL FLORIDA

CITY           SKY/WX    TMP DP  RH WIND       PRES   REMARKS
INVERNESS      HVY RAIN  61  61 100 CALM      30.14S VSB 1/4
BROOKSVILLE    FOG       61  61 100 CALM      30.15R VSB 1/4
CLEARWATER AIR FAIR      59  59 100 CALM      30.14R
ST PETE CLEARW FOG       66  66 100 CALM      30.14R VSB 1/2
TAMPA INTL     FOG       65  65 100 CALM      30.14R VSB 1/4
TAMPA EXEC     FOG      N/A N/A N/A CALM      30.15R VSB 1/4
MACDILL AFB    DRZL/FOG  64  63  94 NE3       30.10R VSB 1/8
ST PETERSBURG  FOG       65  65 100 N3        30.12S VSB 1/4
SARASOTA       PTCLDY    63  61  93 CALM      30.12R
VENICE         MOCLDY    64  63  94 NE6       30.14R

STATION/POSITION SKY/WX   TEMP    WIND        PRES    WAVE   SWELL
                          AIR SEA DIR/SP/G            HT/PER HT/PER
                          (F)     (DEG/KT/KT) (MB)    (FT/S) (FT/S)
27.3N   84.3W                 76                N/A     1/ 3
CLEARWATER BEACH           68 73   20/  2/  2 1020.5R
MIDDLE TAMPA BAY           68      40/  6/  7   N/A
VENICE                     66 73   40/  8/  9 1020.0R

$$
FLZ066-069-070-075>078-162-262-165-265-091300-
SOUTHWEST FLORIDA AND KEYS

CITY           SKY/WX    TMP DP  RH WIND       PRES   REMARKS
PUNTA GORDA    CLEAR     62  61  96 N3        30.14R
FT MYERS       CLEAR     66  65  96 NE3       30.12R
SOUTHWEST INTL CLEAR     66  66 100 N5        30.12S
NAPLES         CLEAR     65  64  97 CALM      30.11R
MARCO ISLAND   CLEAR     67  65  93 N5        30.13R
IMMOKALEE      FOG       64  64 100 CALM      30.12R VSB 1/2
MARATHON       PTCLDY    73  67  81 N7        30.08S
KEY WEST NAS   CLEAR     78  69  73 NE7       30.09S
KEY WEST INTL  CLEAR     72  70  93 NE5       30.10R

STATION/POSITION SKY/WX   TEMP    WIND        PRES    WAVE   SWELL
                          AIR SEA DIR/SP/G            HT/PER HT/PER
                          (F)     (DEG/KT/KT) (MB)    (FT/S) (FT/S)
NAPLES           NOT AVBL
DRY TORTUGAS     NOT AVBL
SOMBRERO KEY               75      30/ 10/ 12 1018.7R
LONG KEY                                      1018.1R

$$
FLZ067-068-071>074-168-172>174-091300-
SOUTHEAST FLORIDA

CITY           SKY/WX    TMP DP  RH WIND       PRES   REMARKS
W PALM BEACH   PTCLDY    67  66  97 NW5       30.10S
BOCA RATON     PTCLDY    68  68 100 VRB6      30.09
FT LAUDER-EXEC PTCLDY    70  69  97 NW5       30.09R
FT LAUDERDALE  MOCLDY    70  68  93 NW6       30.08R
POMPANO BEACH  PTCLDY    69  66  90 NW5       30.09R
PEMBROKE PINES MOCLDY    68  66  93 N5        30.11R
OPA LOCKA      PTCLDY    69  67  93 N3        30.10R
MIAMI          PTCLDY    71  68  90 NW3       30.10R
WEST KENDALL   CLEAR     66  66 100 CALM      30.09S
HOMESTEAD      CLEAR     67  67  99 CALM      30.08R

STATION/POSITION SKY/WX   TEMP    WIND        PRES    WAVE   SWELL
                          AIR SEA DIR/SP/G            HT/PER HT/PER
                          (F)     (DEG/KT/KT) (MB)    (FT/S) (FT/S)
VIRGINIA KEY                  76  330/  3/  4 1019.3R
LAKE WORTH                 71 79  320/  6/  7 1018.5R
SETTLEMENT POINT           75      10/  7/  8 1019.1R

$$




USA.gov is the U.S. government's official web portal to all federal, state and local government web resources and services.